Location: Newark
(51.3318°N, 0.0053°E)
Time: 16:55:24
(UTC+00:00)

X-37B - Pass Details

Date: 31 January 2022
Orbit: 329 x 342 km, 45.0° (Epoch: 18 May)

Event Time Altitude Azimuth Distance (km) Brightness Sun altitude
Rises 18:55:09 0° 247° (WSW) 2,117 5.6 -19.8°
Reaches altitude 10° 18:57:23 10° 232° (SW) 1,277 4.0 -20.2°
Enters shadow 18:59:07 21° 198° (SSW) 827 2.4 -20.4°
